Olean, NY

3:38 AM EDT on June 25, 2017 (GMT -0400)
Cattaraugus County-Olean

Weather History for KOLE - March, 2013

Change the Weather History Date:

Saturday, March 2, 2013

  Actual Average (KBFD) Record (KBFD)
Temperature  
Mean Temperature 19 °F -  
Max Temperature 21 °F 37 °F 64 °F (1991)
Min Temperature 17 °F 18 °F -21 °F (1980)
Degree Days  
Heating Degree Days 46    
Moisture  
Dew Point 17 °F    
Average Humidity 91    
Maximum Humidity 100    
Minimum Humidity 80    
Precipitation  
Precipitation 0.00 in - - ()
Sea Level Pressure  
Sea Level Pressure 29.80 in    
Wind  
Wind Speed 0 mph (North)    
Max Wind Speed 0 mph    
Max Gust Speed -    
Visibility 7 miles    
Events Snow    
Averages and records for this station are not official NWS values.
T = Trace of Precipitation, MM = Missing Value Source: NWS Daily Summary

Daily Weather History Graph

Daily Weather History Graph

Search for Another Location

Airport or City:

Trip Planner

Search our weather history database for the weather conditions in past years. The results will help you decide how hot, cold, wet, or windy it might be!

Date:

Astronomy

Mar. 02, 2013 Rise Set
Actual Time 6:46 AM EST 6:04 PM EST
Civil Twilight 6:18 AM EST 6:33 PM EST
Nautical Twilight 5:46 AM EST 7:05 PM EST
Astronomical Twilight 5:13 AM EST 7:38 PM EST
Moon 11:49 PM EST (3/2) 9:06 AM EST (3/2)
Length of Visible Light 12h 14m
Length of Day
11h 18m
Waning Gibbous, 74% of the Moon is Illuminated
Mar 2
Waning Gibbous
Mar 4
Last Quarter
Mar 11
New
Mar 19
First Quarter
Mar 27
Full

Hourly Weather History & Observations

Time (EST) Temp. Dew Point Humidity Pressure Visibility Wind Dir Wind Speed Gust Speed Precip Events Conditions
12:15 AM 19.4 °F 17.6 °F 93% 29.82 in 10.0 mi Calm Calm - N/A Snow Light Snow
12:35 AM 19.4 °F 17.6 °F 93% 29.82 in 10.0 mi Calm Calm - N/A   Overcast
12:55 AM 19.4 °F 17.6 °F 93% 29.82 in 10.0 mi Calm Calm - N/A   Overcast
1:15 AM 19.4 °F 19.4 °F 100% 29.82 in 10.0 mi Calm Calm - N/A   Overcast
1:35 AM 19.4 °F 19.4 °F 100% 29.81 in 10.0 mi Calm Calm - N/A   Overcast
1:55 AM 19.4 °F 19.4 °F 100% 29.82 in 10.0 mi Calm Calm - N/A   Overcast
2:15 AM 19.4 °F 19.4 °F 100% 29.82 in 10.0 mi Calm Calm - N/A Snow Light Snow
2:35 AM 19.4 °F 19.4 °F 100% 29.81 in 7.0 mi Calm Calm - N/A Snow Light Snow
2:55 AM 19.4 °F 19.4 °F 100% 29.80 in 5.0 mi Calm Calm - N/A Snow Light Snow
3:15 AM 19.4 °F 19.4 °F 100% 29.80 in 7.0 mi Calm Calm - N/A Snow Light Snow
3:35 AM 19.4 °F 17.6 °F 93% 29.80 in 7.0 mi Calm Calm - N/A Snow Light Snow
4:15 AM 19.4 °F 17.6 °F 93% 29.80 in 5.0 mi Calm Calm - N/A Snow Light Snow
4:35 AM 19.4 °F 17.6 °F 93% 29.81 in 4.0 mi Calm Calm - N/A Snow Light Snow
4:55 AM 19.4 °F 17.6 °F 93% 29.81 in 4.0 mi Calm Calm - N/A Snow Light Snow
5:15 AM 17.6 °F 15.8 °F 93% 29.80 in 7.0 mi Calm Calm - N/A Snow Light Snow
5:35 AM 17.6 °F 15.8 °F 93% 29.80 in 7.0 mi Calm Calm - N/A Snow Light Snow
5:55 AM 17.6 °F 15.8 °F 93% 29.80 in 10.0 mi Calm Calm - N/A Snow Light Snow
6:15 AM 17.6 °F 15.8 °F 93% 29.80 in 10.0 mi Calm Calm - N/A Snow Light Snow
6:35 AM 17.6 °F 15.8 °F 93% 29.81 in 10.0 mi Calm Calm - N/A Snow Light Snow
6:55 AM 17.6 °F 15.8 °F 93% 29.81 in 7.0 mi Calm Calm - N/A Snow Light Snow
7:15 AM 17.6 °F 15.8 °F 93% 29.82 in 3.0 mi Calm Calm - N/A Snow Light Snow
7:35 AM 17.6 °F 15.8 °F 93% 29.82 in 1.8 mi Calm Calm - N/A Snow Light Snow
7:55 AM 17.6 °F 15.8 °F 93% 29.82 in 1.8 mi Calm Calm - N/A Snow Light Snow
8:15 AM 17.6 °F 15.8 °F 93% 29.82 in 1.8 mi Calm Calm - N/A Snow Light Snow
8:35 AM 19.4 °F 15.8 °F 86% 29.82 in 0.8 mi Calm Calm - N/A Snow Light Snow
8:55 AM 19.4 °F 15.8 °F 86% 29.82 in 1.5 mi Calm Calm - N/A Snow Light Snow
9:15 AM 19.4 °F 15.8 °F 86% 29.82 in 1.8 mi Calm Calm - N/A Snow Light Snow
9:35 AM 19.4 °F 14.0 °F 80% 29.81 in 3.0 mi Calm Calm - N/A Snow Light Snow
9:55 AM 19.4 °F 14.0 °F 80% 29.81 in 4.0 mi Calm Calm - N/A Snow Light Snow
10:15 AM 19.4 °F 15.8 °F 86% 29.81 in 3.0 mi Calm Calm - N/A Snow Light Snow
10:35 AM 19.4 °F 15.8 °F 86% 29.81 in 3.0 mi Calm Calm - N/A Snow Light Snow
10:55 AM 19.4 °F 15.8 °F 86% 29.81 in 7.0 mi Calm Calm - N/A Snow Light Snow
11:15 AM 19.4 °F 15.8 °F 86% 29.81 in 10.0 mi Calm Calm - N/A   Overcast
11:35 AM 19.4 °F 15.8 °F 86% 29.81 in 10.0 mi Calm Calm - N/A   Overcast
11:55 AM 21.2 °F 15.8 °F 80% 29.81 in 10.0 mi Calm Calm - N/A   Overcast
12:15 PM 21.2 °F 17.6 °F 86% 29.80 in 10.0 mi Calm Calm - N/A   Overcast
12:35 PM 21.2 °F 15.8 °F 80% 29.79 in 10.0 mi Calm Calm - N/A   Overcast
12:55 PM 21.2 °F 17.6 °F 86% 29.78 in 10.0 mi Calm Calm - N/A   Overcast
1:15 PM 21.2 °F 17.6 °F 86% 29.78 in 10.0 mi Calm Calm - N/A   Overcast
1:35 PM 21.2 °F 17.6 °F 86% 29.78 in 4.0 mi Calm Calm - N/A Snow Light Snow
1:55 PM 21.2 °F 17.6 °F 86% 29.78 in 4.0 mi Calm Calm - N/A Snow Light Snow
2:15 PM 21.2 °F 17.6 °F 86% 29.77 in 7.0 mi Calm Calm - N/A   Overcast
2:35 PM 21.2 °F 17.6 °F 86% 29.78 in 4.0 mi Calm Calm - N/A Snow Light Snow
2:55 PM 19.4 °F 17.6 °F 93% 29.78 in 5.0 mi Calm Calm - N/A Snow Light Snow
3:15 PM 19.4 °F 17.6 °F 93% 29.78 in 7.0 mi Calm Calm - N/A   Overcast
3:35 PM 19.4 °F 15.8 °F 86% 29.77 in 5.0 mi Calm Calm - N/A Snow Light Snow
3:55 PM 19.4 °F 15.8 °F 86% 29.77 in 5.0 mi Calm Calm - N/A Snow Light Snow
4:15 PM 19.4 °F 15.8 °F 86% 29.77 in 4.0 mi Calm Calm - N/A Snow Light Snow
4:35 PM 19.4 °F 15.8 °F 86% 29.77 in 4.0 mi Calm Calm - N/A Snow Light Snow
4:55 PM 19.4 °F 15.8 °F 86% 29.78 in 5.0 mi Calm Calm - N/A Snow Light Snow
5:15 PM 17.6 °F 15.8 °F 93% 29.78 in 7.0 mi Calm Calm - N/A   Overcast
5:35 PM 17.6 °F 14.0 °F 86% 29.79 in 7.0 mi Calm Calm - N/A Snow Light Snow
5:55 PM 17.6 °F 14.0 °F 86% 29.79 in 2.5 mi Calm Calm - N/A Snow Light Snow
6:15 PM 17.6 °F 14.0 °F 86% 29.79 in 2.5 mi Calm Calm - N/A Snow Light Snow
6:35 PM 17.6 °F 14.0 °F 86% 29.79 in 7.0 mi Calm Calm - N/A Snow Light Snow
6:55 PM 17.6 °F 14.0 °F 86% 29.79 in 10.0 mi Calm Calm - N/A Snow Light Snow
7:15 PM 17.6 °F 15.8 °F 93% 29.79 in 10.0 mi Calm Calm - N/A   Overcast
7:35 PM 17.6 °F 17.6 °F 100% 29.79 in 10.0 mi Calm Calm - N/A   Overcast
7:55 PM 17.6 °F 17.6 °F 100% 29.78 in 10.0 mi Calm Calm - N/A   Overcast
8:15 PM 19.4 °F 17.6 °F 93% 29.79 in 10.0 mi Calm Calm - N/A   Overcast
8:35 PM 19.4 °F 17.6 °F 93% 29.79 in 10.0 mi Calm Calm - N/A   Overcast
8:55 PM 19.4 °F 17.6 °F 93% 29.79 in 7.0 mi Calm Calm - N/A Snow Light Snow
9:15 PM 19.4 °F 17.6 °F 93% 29.79 in 7.0 mi Calm Calm - N/A Snow Light Snow
9:35 PM 19.4 °F 17.6 °F 93% 29.79 in 7.0 mi Calm Calm - N/A Snow Light Snow
9:55 PM 19.4 °F 17.6 °F 93% 29.78 in 7.0 mi Calm Calm - N/A Snow Light Snow
10:15 PM 19.4 °F 17.6 °F 93% 29.78 in 7.0 mi Calm Calm - N/A Snow Light Snow
10:35 PM 19.4 °F 17.6 °F 93% 29.78 in 7.0 mi Calm Calm - N/A Snow Light Snow
10:55 PM 19.4 °F 17.6 °F 93% 29.78 in 10.0 mi Calm Calm - N/A Snow Light Snow
11:15 PM 19.4 °F 15.8 °F 86% 29.77 in 7.0 mi Calm Calm - N/A Snow Light Snow
11:35 PM 17.6 °F 15.8 °F 93% 29.77 in 10.0 mi Calm Calm - N/A Snow Light Snow
11:55 PM 17.6 °F 15.8 °F 93% 29.77 in 7.0 mi Calm Calm - N/A Snow Light Snow